Weather History for Cortez, CO

Change the Weather History Date:

Tuesday, May 14, 2013

  Actual Average Record
Temperature  
Mean Temperature 63 °F 55 °F  
Max Temperature 83 °F 74 °F 87 °F (2006)
Min Temperature 42 °F 36 °F 26 °F (2004)
Degree Days  
Heating Degree Days 2 10  
Month to date heating degree days 163 166  
Since 1 July heating degree days 6306 6236  
Cooling Degree Days 0 0  
Month to date cooling degree days 0 0  
Year to date cooling degree days 0 0  
Growing Degree Days 12 (Base 50)    
Moisture  
Dew Point 34 °F    
Average Humidity 42    
Maximum Humidity 70    
Minimum Humidity 14    
Precipitation  
Precipitation 0.00 in 0.03 in 0.00 in (2014)
Month to date precipitation 0.72 0.55  
Year to date precipitation 3.33 4.77  
Sea Level Pressure  
Sea Level Pressure 29.91 in    
Wind  
Wind Speed 6 mph (ENE)    
Max Wind Speed 26 mph    
Max Gust Speed 35 mph    
Visibility 10 miles    
Events      
T = Trace of Precipitation, MM = Missing Value Source: NWS Daily Summary

Daily Weather History Graph

Daily Weather History Graph

Search for Another Location

Airport:

Trip Planner

Search our weather history database for the weather conditions in past years. The results will help you decide how hot, cold, wet, or windy it might be!

Date:

Astronomy

May. 14, 2013 Rise Set
Actual Time 6:06 AM MDT 8:15 PM MDT
Civil Twilight 5:37 AM MDT 8:45 PM MDT
Nautical Twilight 5:01 AM MDT 9:20 PM MDT
Astronomical Twilight 4:23 AM MDT 9:59 PM MDT
Moon 9:48 AM MDT (5/14) No Moon Set
Length of Visible Light 15h 07m
Length of Day
14h 09m
Waxing Crescent, 19% of the Moon is Illuminated
May 14
Waxing Crescent
May 17
First Quarter
May 24
Full
May 31
Last Quarter
Jun 8
New

Hourly Weather History & Observations

Time (MDT) Temp. Windchill Dew Point Humidity Pressure Visibility Wind Dir Wind Speed Gust Speed Precip Events Conditions
12:53 AM 48.9 °F - 37.9 °F 66% 30.00 in 10.0 mi Calm Calm - N/A   Clear
1:53 AM 46.9 °F - 36.0 °F 66% 29.99 in 10.0 mi ESE 3.5 mph - N/A   Clear
2:53 AM 46.0 °F 43.1 °F 35.1 °F 66% 29.98 in 10.0 mi ENE 5.8 mph - N/A   Clear
3:53 AM 44.1 °F 39.5 °F 35.1 °F 71% 29.98 in 10.0 mi ENE 8.1 mph - N/A   Clear
4:53 AM 44.1 °F 41.5 °F 34.0 °F 68% 29.98 in 10.0 mi ENE 4.6 mph - N/A   Clear
5:53 AM 43.0 °F 41.3 °F 34.0 °F 71% 29.98 in 10.0 mi ENE 3.5 mph - N/A   Clear
6:53 AM 46.9 °F - 35.1 °F 63% 29.98 in 10.0 mi Calm Calm - N/A   Clear
7:53 AM 52.0 °F - 37.0 °F 57% 29.99 in 10.0 mi Calm Calm - N/A   Clear
8:53 AM 61.0 °F - 37.9 °F 42% 29.98 in 10.0 mi Calm Calm - N/A   Clear
9:53 AM 70.0 °F - 37.0 °F 30% 29.96 in 10.0 mi Calm Calm - N/A   Clear
10:53 AM 75.0 °F - 34.0 °F 22% 29.94 in 10.0 mi Variable 5.8 mph - N/A   Clear
11:53 AM 80.1 °F - 32.0 °F 17% 29.91 in 10.0 mi Variable 5.8 mph - N/A   Clear
12:53 PM 82.0 °F - 30.0 °F 15% 29.89 in 10.0 mi West 8.1 mph - N/A   Clear
1:53 PM 80.1 °F - 26.1 °F 14% 29.88 in 10.0 mi Variable 5.8 mph - N/A   Clear
2:53 PM 75.0 °F - 32.0 °F 21% 29.89 in 10.0 mi East 19.6 mph 31.1 mph N/A   Clear
3:53 PM 75.0 °F - 32.0 °F 21% 29.88 in 10.0 mi East 13.8 mph 20.7 mph N/A   Clear
4:53 PM 75.9 °F - 28.9 °F 18% 29.85 in 10.0 mi East 10.4 mph - N/A   Clear
5:53 PM 75.0 °F - 36.0 °F 24% 29.88 in 10.0 mi NNE 17.3 mph 27.6 mph N/A   Clear
6:53 PM 71.1 °F - 35.1 °F 27% 29.86 in 10.0 mi ENE 12.7 mph 21.9 mph N/A   Clear
7:53 PM 70.0 °F - 33.1 °F 26% 29.84 in 10.0 mi East 4.6 mph - N/A   Partly Cloudy
8:53 PM 68.0 °F - 33.1 °F 27% 29.83 in 10.0 mi NW 3.5 mph - N/A   Clear
9:53 PM 64.9 °F - 34.0 °F 32% 29.83 in 10.0 mi NNE 6.9 mph - N/A   Clear
10:53 PM 62.1 °F - 36.0 °F 38% 29.85 in 10.0 mi Calm Calm - N/A   Mostly Cloudy
11:53 PM 64.9 °F - 34.0 °F 32% 29.81 in 10.0 mi Calm Calm - N/A   Partly Cloudy